| time (UTC) | temp F | wind direction | speed MPH | gust MPH | rain 1hr in | rain 24hr in | rain mn in | humidity % | barometer mb |
| 20260506211042 | 62 | 137 | 0.0 | 0.0 | 0.00 | 0.56 | 0.56 | 85 | 1004.5 |
| 20260506210538 | 62 | 137 | 0.0 | 0.0 | 0.00 | 0.56 | 0.56 | 86 | 1004.9 |
| 20260506210035 | 62 | 137 | 0.0 | 0.0 | 0.00 | 0.56 | 0.56 | 87 | 1005.0 |
| 20260506205532 | 61 | 137 | 0.0 | 0.0 | 0.00 | 0.56 | 0.56 | 85 | 1004.8 |
| 20260506205027 | 62 | 137 | 0.0 | 1.0 | 0.00 | 0.56 | 0.56 | 87 | 1004.9 |
| 20260506204525 | 62 | 137 | 0.0 | 0.0 | 0.00 | 0.56 | 0.56 | 84 | 1004.6 |
| 20260506204022 | 62 | 136 | 1.0 | 2.0 | 0.00 | 0.56 | 0.56 | 82 | 1004.6 |
| 20260506203520 | 62 | 140 | 2.0 | 3.0 | 0.00 | 0.56 | 0.56 | 82 | 1004.7 |
| 20260506203016 | 62 | 179 | 0.0 | 0.0 | 0.00 | 0.56 | 0.56 | 83 | 1004.6 |
| 20260506202514 | 63 | 84 | 2.0 | 3.0 | 0.00 | 0.56 | 0.56 | 79 | 1004.8 |
| 20260506202010 | 63 | 134 | 1.0 | 2.0 | 0.00 | 0.56 | 0.56 | 83 | 1004.8 |
| 20260506201508 | 63 | 139 | 1.0 | 1.0 | 0.00 | 0.56 | 0.56 | 80 | 1004.6 |
| 20260506201004 | 63 | 162 | 0.0 | 0.0 | 0.00 | 0.56 | 0.56 | 81 | 1004.9 |
| 20260506200500 | 63 | 220 | 1.0 | 2.0 | 0.00 | 0.56 | 0.56 | 79 | 1004.8 |
| 20260506195956 | 63 | 191 | 0.0 | 0.0 | 0.00 | 0.56 | 0.56 | 80 | 1004.7 |
| 20260506195454 | 63 | 146 | 2.0 | 3.0 | 0.00 | 0.56 | 0.56 | 81 | 1005.0 |
| 20260506194950 | 63 | 126 | 7.0 | 10.0 | 0.00 | 0.56 | 0.56 | 80 | 1004.8 |
| 20260506194448 | 64 | 161 | 1.0 | 2.0 | 0.00 | 0.56 | 0.56 | 79 | 1005.0 |
| 20260506193944 | 64 | 317 | 0.0 | 0.0 | 0.00 | 0.56 | 0.56 | 80 | 1004.9 |
| 20260506193442 | 64 | 158 | 3.0 | 3.0 | 0.00 | 0.56 | 0.56 | 79 | 1005.0 |
| 20260506192938 | 65 | 99 | 2.0 | 2.0 | 0.00 | 0.56 | 0.56 | 80 | 1004.9 |
| 20260506192435 | 66 | 200 | 5.0 | 8.0 | 0.00 | 0.56 | 0.56 | 77 | 1005.2 |
| 20260506191932 | 66 | 185 | 6.0 | 7.0 | 0.00 | 0.56 | 0.56 | 77 | 1005.2 |
| 20260506191428 | 65 | 201 | 3.0 | 3.0 | 0.00 | 0.56 | 0.56 | 78 | 1005.2 |
| 20260506190925 | 65 | 133 | 1.0 | 1.0 | 0.00 | 0.56 | 0.56 | 83 | 1004.8 |
| 20260506190422 | 66 | 168 | 5.0 | 6.0 | 0.05 | 0.56 | 0.56 | 82 | 1005.2 |
| 20260506185919 | 64 | 182 | 1.0 | 2.0 | 0.05 | 0.56 | 0.56 | 85 | 1005.1 |
| 20260506185416 | 64 | 192 | 0.0 | 0.0 | 0.05 | 0.56 | 0.56 | 86 | 1005.4 |
| 20260506184913 | 63 | 158 | 1.0 | 2.0 | 0.00 | 0.55 | 0.55 | 88 | 1005.4 |
| 20260506184410 | 64 | 302 | 2.0 | 2.0 | 0.00 | 0.55 | 0.55 | 84 | 1005.2 |
| 20260506183907 | 63 | 222 | 0.0 | 1.0 | 0.00 | 0.55 | 0.55 | 90 | 1005.4 |
| 20260506183402 | 63 | 119 | 0.0 | 1.0 | 0.00 | 0.55 | 0.55 | 86 | 1005.3 |
| 20260506182900 | 62 | 177 | 0.0 | 0.0 | 0.00 | 0.55 | 0.55 | 86 | 1005.4 |
| 20260506182357 | 62 | 121 | 2.0 | 3.0 | 0.00 | 0.55 | 0.55 | 89 | 1005.4 |
| 20260506181854 | 62 | 111 | 4.0 | 6.0 | 0.00 | 0.55 | 0.55 | 90 | 1005.4 |
| 20260506181352 | 61 | 162 | 1.0 | 2.0 | 0.07 | 0.55 | 0.55 | 86 | 1005.6 |
| 20260506180849 | 62 | 199 | 6.0 | 7.0 | 0.07 | 0.55 | 0.55 | 86 | 1005.7 |
| 20260506180345 | 62 | 141 | 0.0 | 0.0 | 0.07 | 0.55 | 0.55 | 93 | 1005.6 |
| 20260506175841 | 62 | 141 | 0.0 | 0.0 | 0.05 | 0.54 | 0.54 | 90 | 1005.9 |
| 20260506175338 | 62 | 141 | 0.0 | 0.0 | 0.12 | 0.54 | 0.54 | 93 | 1005.6 |
| 20260506174835 | 61 | 141 | 0.0 | 0.0 | 0.12 | 0.53 | 0.53 | 92 | 1005.6 |
| 20260506174333 | 61 | 141 | 0.0 | 0.0 | 0.12 | 0.52 | 0.52 | 92 | 1005.9 |
| 20260506173830 | 61 | 141 | 0.0 | 0.0 | 0.12 | 0.51 | 0.51 | 93 | 1005.6 |
| 20260506173327 | 61 | 141 | 1.0 | 1.0 | 0.05 | 0.50 | 0.50 | 90 | 1005.7 |
| 20260506172824 | 61 | 154 | 0.0 | 0.0 | 0.07 | 0.49 | 0.49 | 92 | 1005.8 |
| 20260506172320 | 61 | 154 | 0.0 | 0.0 | 0.14 | 0.49 | 0.49 | 93 | 1005.7 |
| 20260506171818 | 60 | 154 | 0.0 | 0.0 | 0.12 | 0.48 | 0.48 | 93 | 1005.6 |
| 20260506171315 | 60 | 154 | 0.0 | 0.0 | 0.12 | 0.47 | 0.47 | 93 | 1005.6 |
| 20260506170813 | 61 | 155 | 0.0 | 0.0 | 0.07 | 0.46 | 0.46 | 93 | 1005.8 |
| 20260506170308 | 61 | 136 | 0.0 | 0.0 | 0.05 | 0.45 | 0.45 | 92 | 1005.6 |
| 20260506165808 | 60 | 135 | 0.0 | 0.0 | 0.05 | 0.45 | 0.45 | 93 | 1005.7 |
| 20260506165305 | 60 | 136 | 0.0 | 0.0 | 0.07 | 0.44 | 0.44 | 92 | 1005.8 |
| 20260506164801 | 60 | 136 | 0.0 | 0.0 | 0.12 | 0.44 | 0.44 | 93 | 1005.8 |
| 20260506164258 | 60 | 156 | 0.0 | 0.0 | 0.12 | 0.43 | 0.43 | 94 | 1005.8 |
| 20260506163755 | 60 | 155 | 1.0 | 2.0 | 0.12 | 0.42 | 0.42 | 92 | 1005.7 |
| 20260506163250 | 60 | 156 | 0.0 | 0.0 | 0.12 | 0.41 | 0.41 | 92 | 1005.9 |
| 20260506162746 | 59 | 165 | 2.0 | 4.0 | 0.12 | 0.40 | 0.40 | 91 | 1005.8 |
| 20260506162244 | 59 | 133 | 3.0 | 4.0 | 0.12 | 0.40 | 0.40 | 90 | 1005.8 |
| 20260506161741 | 59 | 142 | 1.0 | 2.0 | 0.12 | 0.39 | 0.39 | 93 | 1006.2 |
| 20260506161238 | 59 | 142 | 1.0 | 1.0 | 0.12 | 0.38 | 0.38 | 91 | 1006.0 |
| 20260506160736 | 59 | 153 | 0.0 | 0.0 | 0.12 | 0.37 | 0.37 | 92 | 1006.3 |
| 20260506160232 | 59 | 154 | 0.0 | 0.0 | 0.14 | 0.36 | 0.36 | 90 | 1006.4 |
| 20260506155731 | 59 | 189 | 4.0 | 6.0 | 0.19 | 0.36 | 0.36 | 87 | 1006.3 |
| 20260506155227 | 59 | 152 | 0.0 | 0.0 | 0.12 | 0.35 | 0.35 | 92 | 1006.4 |
| 20260506153329 | 59 | 119 | 2.0 | 2.0 | 0.12 | 0.31 | 0.31 | 90 | 1006.2 |
| 20260506152826 | 59 | 161 | 2.0 | 2.0 | 0.12 | 0.30 | 0.30 | 90 | 1006.4 |
| 20260506152323 | 59 | 147 | 1.0 | 1.0 | 0.12 | 0.29 | 0.29 | 90 | 1006.5 |
| 20260506151822 | 59 | 136 | 2.0 | 2.0 | 0.05 | 0.28 | 0.28 | 91 | 1006.6 |
| 20260506151318 | 59 | 145 | 0.0 | 0.0 | 0.07 | 0.27 | 0.27 | 93 | 1007.0 |
| 20260506150815 | 59 | 148 | 0.0 | 1.0 | 0.12 | 0.27 | 0.27 | 91 | 1007.0 |
| 20260506150312 | 59 | 147 | 0.0 | 0.0 | 0.12 | 0.26 | 0.26 | 92 | 1007.0 |
| 20260506145809 | 59 | 147 | 0.0 | 0.0 | 0.12 | 0.25 | 0.25 | 92 | 1006.9 |
| 20260506145306 | 59 | 145 | 0.0 | 1.0 | 0.12 | 0.24 | 0.24 | 92 | 1006.9 |
| 20260506144803 | 59 | 119 | 0.0 | 0.0 | 0.14 | 0.23 | 0.23 | 92 | 1007.0 |
| 20260506144259 | 59 | 161 | 2.0 | 2.0 | 0.12 | 0.22 | 0.22 | 91 | 1007.1 |
| 20260506143757 | 59 | 70 | 2.0 | 3.0 | 0.12 | 0.21 | 0.21 | 89 | 1006.9 |
| 20260506143254 | 59 | 175 | 0.0 | 2.0 | 0.12 | 0.20 | 0.20 | 92 | 1007.3 |
| 20260506142752 | 59 | 175 | 1.0 | 1.0 | 0.12 | 0.19 | 0.19 | 93 | 1007.2 |
| 20260506142250 | 59 | 176 | 0.0 | 0.0 | 0.12 | 0.18 | 0.18 | 92 | 1007.4 |
| 20260506141748 | 59 | 115 | 0.0 | 1.0 | 0.12 | 0.17 | 0.17 | 92 | 1007.5 |
| 20260506141246 | 59 | 161 | 1.0 | 2.0 | 0.19 | 0.16 | 0.16 | 90 | 1007.6 |
| 20260506140743 | 59 | 158 | 1.0 | 1.0 | 0.17 | 0.15 | 0.15 | 91 | 1007.5 |
| 20260506140240 | 59 | 158 | 0.0 | 0.0 | 0.19 | 0.14 | 0.14 | 90 | 1007.6 |
| 20260506135737 | 59 | 152 | 1.0 | 1.0 | 0.19 | 0.12 | 0.12 | 89 | 1007.4 |
| 20260506135233 | 59 | 171 | 0.0 | 0.0 | 0.19 | 0.11 | 0.11 | 91 | 1007.5 |
| 20260506134730 | 59 | 101 | 1.0 | 2.0 | 0.12 | 0.09 | 0.09 | 89 | 1007.5 |
| 20260506134227 | 60 | 159 | 0.0 | 1.0 | 0.12 | 0.08 | 0.08 | 89 | 1007.7 |
| 20260506133724 | 60 | 165 | 1.0 | 2.0 | 0.12 | 0.07 | 0.07 | 86 | 1007.4 |
| 20260506133220 | 60 | 158 | 1.0 | 1.0 | 0.05 | 0.06 | 0.06 | 86 | 1007.5 |
| 20260506132718 | 60 | 150 | 1.0 | 1.0 | 0.00 | 0.05 | 0.05 | 87 | 1007.6 |
| 20260506132214 | 60 | 178 | 2.0 | 2.0 | 0.00 | 0.05 | 0.05 | 84 | 1007.1 |
| 20260506131713 | 59 | 162 | 1.0 | 1.0 | 0.00 | 0.05 | 0.05 | 86 | 1007.3 |
| 20260506131208 | 56 | 44 | 5.0 | 7.0 | 0.00 | 0.05 | 0.05 | 88 | 1007.3 |
| 20260506130705 | 55 | 157 | 2.0 | 3.0 | 0.07 | 0.05 | 0.05 | 96 | 1007.3 |
| 20260506130202 | 55 | 285 | 0.0 | 0.0 | 0.07 | 0.05 | 0.05 | 96 | 1007.3 |
| 20260506125700 | 54 | 285 | 1.0 | 2.0 | 0.00 | 0.04 | 0.04 | 96 | 1007.2 |
| 20260506125158 | 54 | 285 | 0.0 | 0.0 | 0.00 | 0.04 | 0.04 | 95 | 1007.3 |
| 20260506124655 | 54 | 285 | 0.0 | 0.0 | 0.00 | 0.04 | 0.04 | 96 | 1007.0 |
| 20260506124153 | 54 | 285 | 0.0 | 0.0 | 0.05 | 0.04 | 0.04 | 96 | 1007.2 |
| 20260506123651 | 54 | 285 | 0.0 | 0.0 | 0.12 | 0.04 | 0.04 | 96 | 1007.4 |
| 20260506123149 | 54 | 285 | 0.0 | 0.0 | 0.07 | 0.03 | 0.03 | 96 | 1007.2 |
| 20260506122646 | 54 | 285 | 0.0 | 0.0 | 0.00 | 0.02 | 0.02 | 96 | 1007.2 |
| 20260506122143 | 54 | 285 | 0.0 | 0.0 | 0.00 | 0.02 | 0.02 | 96 | 1007.2 |
| 20260506121641 | 54 | 285 | 0.0 | 0.0 | 0.00 | 0.02 | 0.02 | 96 | 1007.5 |
| 20260506121137 | 53 | 285 | 0.0 | 1.0 | 0.00 | 0.02 | 0.02 | 96 | 1007.8 |
| 20260506120635 | 53 | 285 | 0.0 | 0.0 | 0.00 | 0.02 | 0.02 | 96 | 1008.0 |
| 20260506120132 | 54 | 285 | 0.0 | 0.0 | 0.05 | 0.02 | 0.02 | 95 | 1007.8 |
| 20260506115631 | 54 | 286 | 0.0 | 0.0 | 0.05 | 0.02 | 0.02 | 96 | 1008.2 |
| 20260506115128 | 54 | 286 | 0.0 | 1.0 | 0.05 | 0.02 | 0.02 | 95 | 1008.2 |
| 20260506114625 | 54 | 286 | 0.0 | 1.0 | 0.00 | 0.01 | 0.01 | 95 | 1008.1 |
| 20260506114123 | 54 | 215 | 0.0 | 0.0 | 0.00 | 0.01 | 0.01 | 95 | 1008.1 |
| 20260506113621 | 54 | 215 | 0.0 | 0.0 | 0.00 | 0.01 | 0.01 | 96 | 1008.0 |
| 20260506113118 | 54 | 216 | 1.0 | 2.0 | 0.00 | 0.01 | 0.01 | 95 | 1007.9 |
| 20260506112614 | 53 | 215 | 1.0 | 1.0 | 0.00 | 0.01 | 0.01 | 96 | 1007.8 |
| 20260506112112 | 53 | 215 | 0.0 | 0.0 | 0.00 | 0.01 | 0.01 | 96 | 1007.8 |
| 20260506111610 | 53 | 214 | 0.0 | 0.0 | 0.00 | 0.01 | 0.01 | 97 | 1007.6 |
| 20260506111107 | 53 | 215 | 0.0 | 1.0 | 0.00 | 0.01 | 0.01 | 96 | 1007.7 |
| 20260506110605 | 53 | 214 | 0.0 | 1.0 | 0.07 | 0.01 | 0.01 | 97 | 1007.6 |
| 20260506105558 | 53 | 214 | 0.0 | 0.0 | 0.00 | 0.00 | 0.00 | 97 | 1007.7 |
| 20260506105055 | 53 | 212 | 0.0 | 0.0 | 0.00 | 0.00 | 0.00 | 97 | 1007.4 |
| 20260506104553 | 53 | 212 | 0.0 | 0.0 | 0.00 | 0.00 | 0.00 | 97 | 1007.1 |
| 20260506104050 | 53 | 212 | 0.0 | 0.0 | 0.00 | 0.00 | 0.00 | 97 | 1007.2 |
| 20260506103548 | 53 | 212 | 0.0 | 1.0 | 0.00 | 0.00 | 0.00 | 97 | 1007.4 |
| 20260506103044 | 53 | 212 | 1.0 | 1.0 | 0.00 | 0.00 | 0.00 | 97 | 1007.3 |
| 20260506102543 | 53 | 212 | 0.0 | 0.0 | 0.00 | 0.00 | 0.00 | 98 | 1007.3 |
| 20260506102040 | 53 | 212 | 0.0 | 0.0 | 0.00 | 0.00 | 0.00 | 98 | 1007.3 |
| 20260506101536 | 53 | 212 | 0.0 | 1.0 | 0.00 | 0.00 | 0.00 | 98 | 1007.2 |
| 20260506101033 | 53 | 212 | 0.0 | 0.0 | 0.00 | 0.00 | 0.00 | 98 | 1007.3 |
| 20260506100532 | 53 | 212 | 0.0 | 0.0 | 0.00 | 0.00 | 0.00 | 98 | 1007.2 |
| 20260506100030 | 53 | 212 | 0.0 | 0.0 | 0.00 | 0.00 | 0.00 | 98 | 1007.3 |
| 20260506095528 | 53 | 212 | 0.0 | 0.0 | 0.00 | 0.00 | 0.00 | 98 | 1007.3 |
| 20260506095024 | 53 | 212 | 0.0 | 0.0 | 0.00 | 0.00 | 0.00 | 98 | 1007.4 |
| 20260506094522 | 53 | 212 | 0.0 | 0.0 | 0.00 | 0.00 | 0.00 | 98 | 1007.2 |
| 20260506094020 | 53 | 212 | 0.0 | 0.0 | 0.00 | 0.00 | 0.00 | 98 | 1007.1 |
| 20260506093518 | 53 | 212 | 0.0 | 0.0 | 0.00 | 0.00 | 0.00 | 98 | 1007.3 |
| 20260506093015 | 53 | 212 | 0.0 | 0.0 | 0.00 | 0.00 | 0.00 | 98 | 1007.1 |
| 20260506092513 | 53 | 212 | 0.0 | 0.0 | 0.00 | 0.00 | 0.00 | 98 | 1007.1 |
| 20260506092009 | 53 | 212 | 0.0 | 0.0 | 0.00 | 0.00 | 0.00 | 98 | 1007.3 |
| 20260506091508 | 53 | 212 | 0.0 | 0.0 | 0.00 | 0.00 | 0.00 | 98 | 1007.0 |
| 20260506091004 | 53 | 212 | 0.0 | 0.0 | 0.00 | 0.00 | 0.00 | 98 | 1007.3 |
| 20260506090502 | 53 | 212 | 0.0 | 0.0 | 0.00 | 0.00 | 0.00 | 98 | 1007.1 |
| 20260506085958 | 53 | 212 | 0.0 | 0.0 | 0.00 | 0.00 | 0.00 | 98 | 1007.2 |
| 20260506085455 | 53 | 212 | 0.0 | 1.0 | 0.00 | 0.00 | 0.00 | 98 | 1007.3 |
| 20260506084951 | 52 | 212 | 0.0 | 0.0 | 0.00 | 0.00 | 0.00 | 98 | 1007.4 |
| 20260506084448 | 52 | 213 | 0.0 | 0.0 | 0.00 | 0.00 | 0.00 | 98 | 1007.4 |
| 20260506083945 | 52 | 213 | 0.0 | 0.0 | 0.00 | 0.00 | 0.00 | 98 | 1007.2 |
| 20260506083442 | 52 | 213 | 0.0 | 0.0 | 0.00 | 0.00 | 0.00 | 98 | 1007.4 |
| 20260506082939 | 52 | 213 | 0.0 | 1.0 | 0.00 | 0.00 | 0.00 | 98 | 1007.5 |
| 20260506082436 | 52 | 213 | 0.0 | 0.0 | 0.00 | 0.00 | 0.00 | 97 | 1007.6 |
| 20260506081932 | 53 | 213 | 0.0 | 0.0 | 0.00 | 0.00 | 0.00 | 97 | 1007.7 |
| 20260506081431 | 53 | 213 | 0.0 | 0.0 | 0.00 | 0.00 | 0.00 | 97 | 1007.7 |
| 20260506080927 | 52 | 213 | 0.0 | 0.0 | 0.00 | 0.00 | 0.00 | 97 | 1007.5 |
| 20260506080424 | 53 | 213 | 0.0 | 0.0 | 0.00 | 0.00 | 0.00 | 97 | 1007.6 |
| 20260506073408 | 53 | 213 | 0.0 | 0.0 | 0.00 | 0.00 | 0.00 | 97 | 1007.9 |
| 20260506072906 | 53 | 213 | 0.0 | 0.0 | 0.00 | 0.00 | 0.00 | 97 | 1008.3 |
| 20260506072403 | 53 | 213 | 0.0 | 0.0 | 0.00 | 0.00 | 0.00 | 97 | 1008.1 |
| 20260506071900 | 53 | 214 | 0.0 | 0.0 | 0.00 | 0.00 | 0.00 | 97 | 1008.2 |
| 20260506071358 | 53 | 214 | 0.0 | 0.0 | 0.00 | 0.00 | 0.00 | 97 | 1008.3 |
| 20260506070854 | 53 | 214 | 0.0 | 0.0 | 0.00 | 0.00 | 0.00 | 97 | 1008.2 |
| 20260506070352 | 53 | 213 | 0.0 | 0.0 | 0.00 | 0.00 | 0.00 | 97 | 1008.3 |
| 20260506062328 | 54 | 214 | 0.0 | 0.0 | 0.00 | 0.00 | 0.00 | 96 | 1008.9 |
| 20260506061825 | 55 | 214 | 0.0 | 0.0 | 0.00 | 0.00 | 0.00 | 96 | 1008.8 |
| 20260506061322 | 54 | 214 | 0.0 | 0.0 | 0.00 | 0.00 | 0.00 | 96 | 1008.8 |
| 20260506060820 | 55 | 214 | 0.0 | 0.0 | 0.00 | 0.00 | 0.00 | 96 | 1008.8 |
| 20260506060318 | 55 | 214 | 0.0 | 0.0 | 0.00 | 0.00 | 0.00 | 96 | 1009.3 |
| 20260506051249 | 55 | 214 | 0.0 | 0.0 | 0.00 | 0.00 | 0.00 | 96 | 1009.5 |
| 20260506050747 | 55 | 214 | 1.0 | 1.0 | 0.00 | 0.00 | 0.00 | 97 | 1009.3 |
| 20260506050244 | 55 | 213 | 0.0 | 0.0 | 0.00 | 0.00 | 0.00 | 97 | 1009.4 |
| 20260506044735 | 54 | 209 | 0.0 | 0.0 | 0.00 | 0.00 | 0.00 | 97 | 1009.3 |
| 20260506044232 | 54 | 209 | 0.0 | 0.0 | 0.00 | 0.00 | 0.00 | 97 | 1009.4 |
| 20260506043729 | 54 | 209 | 0.0 | 0.0 | 0.00 | 0.00 | 0.00 | 96 | 1009.3 |
| 20260506043227 | 54 | 208 | 0.0 | 0.0 | 0.00 | 0.00 | 0.00 | 96 | 1009.4 |
| 20260506042725 | 54 | 209 | 0.0 | 0.0 | 0.00 | 0.00 | 0.00 | 96 | 1009.4 |
| 20260506042223 | 54 | 209 | 0.0 | 0.0 | 0.00 | 0.00 | 0.00 | 96 | 1009.4 |
| 20260506041722 | 55 | 209 | 0.0 | 0.0 | 0.00 | 0.00 | 0.00 | 96 | 1009.4 |
| 20260506041218 | 55 | 209 | 0.0 | 0.0 | 0.00 | 0.00 | 0.00 | 96 | 1009.4 |
| 20260506040716 | 56 | 208 | 0.0 | 0.0 | 0.00 | 0.00 | 0.00 | 96 | 1009.3 |
| 20260506040213 | 56 | 208 | 0.0 | 0.0 | 0.00 | 0.00 | 0.00 | 95 | 1009.3 |
| 20260506035709 | 56 | 208 | 0.0 | 0.0 | 0.00 | 0.05 | 0.05 | 95 | 1009.4 |
| 20260506035206 | 56 | 208 | 0.0 | 0.0 | 0.00 | 0.05 | 0.05 | 95 | 1009.4 |
| 20260506034703 | 57 | 208 | 0.0 | 0.0 | 0.00 | 0.05 | 0.05 | 95 | 1009.2 |
| 20260506034201 | 57 | 208 | 0.0 | 0.0 | 0.00 | 0.05 | 0.05 | 95 | 1009.4 |
| 20260506033658 | 57 | 208 | 0.0 | 0.0 | 0.00 | 0.05 | 0.05 | 95 | 1009.0 |
| 20260506033154 | 57 | 208 | 0.0 | 0.0 | 0.00 | 0.05 | 0.05 | 95 | 1009.0 |
| 20260506032651 | 57 | 208 | 0.0 | 0.0 | 0.00 | 0.05 | 0.05 | 95 | 1009.0 |
| 20260506032148 | 57 | 208 | 0.0 | 0.0 | 0.00 | 0.05 | 0.05 | 95 | 1009.0 |
| 20260506031645 | 57 | 208 | 0.0 | 0.0 | 0.00 | 0.05 | 0.05 | 95 | 1008.8 |
| 20260506031142 | 58 | 208 | 0.0 | 0.0 | 0.00 | 0.05 | 0.05 | 95 | 1008.8 |
| 20260506030641 | 58 | 208 | 0.0 | 0.0 | 0.00 | 0.05 | 0.05 | 94 | 1008.9 |
| 20260506030138 | 58 | 208 | 0.0 | 0.0 | 0.00 | 0.05 | 0.05 | 94 | 1009.0 |
| 20260506025634 | 58 | 208 | 0.0 | 0.0 | 0.05 | 0.05 | 0.05 | 94 | 1008.8 |
| 20260506025130 | 58 | 208 | 0.0 | 0.0 | 0.05 | 0.05 | 0.05 | 94 | 1008.8 |
| 20260506024628 | 58 | 208 | 0.0 | 0.0 | 0.00 | 0.04 | 0.04 | 93 | 1008.9 |
| 20260506024124 | 58 | 208 | 0.0 | 0.0 | 0.00 | 0.04 | 0.04 | 93 | 1009.2 |
| 20260506023621 | 58 | 208 | 0.0 | 0.0 | 0.00 | 0.04 | 0.04 | 93 | 1009.0 |
| 20260506023118 | 58 | 208 | 1.0 | 1.0 | 0.00 | 0.04 | 0.04 | 93 | 1008.8 |
| 20260506022615 | 58 | 208 | 0.0 | 0.0 | 0.00 | 0.04 | 0.04 | 93 | 1008.8 |
| 20260506022113 | 58 | 208 | 0.0 | 0.0 | 0.00 | 0.04 | 0.04 | 92 | 1009.2 |
| 20260506021610 | 59 | 209 | 0.0 | 0.0 | 0.07 | 0.04 | 0.04 | 92 | 1009.4 |
| 20260506021107 | 59 | 209 | 1.0 | 1.0 | 0.14 | 0.04 | 0.04 | 91 | 1008.9 |
| 20260506020604 | 59 | 209 | 0.0 | 0.0 | 0.12 | 0.03 | 0.03 | 90 | 1009.5 |
| 20260506015559 | 60 | 208 | 0.0 | 0.0 | 0.00 | 0.01 | 0.01 | 86 | 1009.2 |
| 20260506015056 | 60 | 208 | 0.0 | 0.0 | 0.00 | 0.01 | 0.01 | 85 | 1008.6 |
| 20260506014554 | 60 | 208 | 0.0 | 0.0 | 0.00 | 0.01 | 0.01 | 84 | 1008.7 |
| 20260506014049 | 60 | 208 | 1.0 | 1.0 | 0.00 | 0.01 | 0.01 | 85 | 1008.6 |
| 20260506013547 | 60 | 208 | 0.0 | 0.0 | 0.00 | 0.01 | 0.01 | 85 | 1008.3 |
| 20260506013044 | 60 | 208 | 0.0 | 1.0 | 0.00 | 0.01 | 0.01 | 86 | 1008.4 |
| 20260506012540 | 60 | 208 | 0.0 | 0.0 | 0.00 | 0.01 | 0.01 | 85 | 1008.4 |
| 20260506012037 | 60 | 209 | 1.0 | 1.0 | 0.00 | 0.01 | 0.01 | 85 | 1008.2 |
| 20260506011535 | 60 | 209 | 1.0 | 1.0 | 0.00 | 0.01 | 0.01 | 86 | 1008.4 |
| 20260506011031 | 60 | 209 | 1.0 | 2.0 | 0.00 | 0.01 | 0.01 | 85 | 1008.2 |
| 20260506010531 | 61 | 209 | 0.0 | 0.0 | 0.00 | 0.01 | 0.01 | 85 | 1008.4 |
| 20260506010026 | 61 | 209 | 0.0 | 0.0 | 0.00 | 0.01 | 0.01 | 85 | 1008.2 |
| 20260506005524 | 61 | 209 | 0.0 | 0.0 | 0.00 | 0.01 | 0.01 | 84 | 1008.3 |
| 20260506005019 | 61 | 209 | 0.0 | 0.0 | 0.00 | 0.01 | 0.01 | 84 | 1008.2 |
| 20260506004517 | 61 | 209 | 0.0 | 0.0 | 0.00 | 0.01 | 0.01 | 84 | 1008.1 |
| 20260506004013 | 61 | 209 | 0.0 | 0.0 | 0.00 | 0.01 | 0.01 | 82 | 1008.0 |
| 20260506003510 | 61 | 209 | 0.0 | 0.0 | 0.00 | 0.01 | 0.01 | 82 | 1008.2 |
| 20260506003006 | 61 | 209 | 0.0 | 0.0 | 0.00 | 0.01 | 0.01 | 81 | 1008.1 |
| 20260506002502 | 61 | 209 | 0.0 | 0.0 | 0.00 | 0.01 | 0.01 | 82 | 1008.2 |
| 20260506001958 | 61 | 209 | 0.0 | 0.0 | 0.00 | 0.01 | 0.01 | 81 | 1007.9 |
| 20260506001454 | 61 | 209 | 0.0 | 0.0 | 0.00 | 0.01 | 0.01 | 81 | 1007.9 |
| 20260506000952 | 61 | 209 | 0.0 | 0.0 | 0.00 | 0.01 | 0.01 | 81 | 1007.9 |
| 20260506000449 | 62 | 209 | 0.0 | 0.0 | 0.00 | 0.01 | 0.01 | 80 | 1007.7 |
| 20260505235946 | 62 | 209 | 0.0 | 0.0 | 0.00 | 0.01 | 0.01 | 80 | 1007.6 |
| 20260505235444 | 62 | 209 | 0.0 | 0.0 | 0.00 | 0.01 | 0.01 | 79 | 1007.8 |
| 20260505234941 | 62 | 209 | 0.0 | 0.0 | 0.00 | 0.01 | 0.01 | 79 | 1007.7 |
| 20260505234438 | 62 | 209 | 0.0 | 0.0 | 0.00 | 0.01 | 0.01 | 79 | 1007.4 |
| 20260505233935 | 62 | 209 | 0.0 | 0.0 | 0.00 | 0.01 | 0.01 | 79 | 1007.6 |
| 20260505233433 | 63 | 209 | 0.0 | 0.0 | 0.00 | 0.01 | 0.01 | 77 | 1007.4 |
| 20260505232930 | 63 | 209 | 0.0 | 0.0 | 0.00 | 0.01 | 0.01 | 75 | 1007.3 |
| 20260505232428 | 63 | 209 | 0.0 | 0.0 | 0.00 | 0.01 | 0.01 | 77 | 1007.3 |
| 20260505231924 | 64 | 209 | 0.0 | 1.0 | 0.00 | 0.01 | 0.01 | 77 | 1007.2 |
| 20260505231422 | 64 | 209 | 0.0 | 0.0 | 0.00 | 0.01 | 0.01 | 76 | 1007.4 |
| 20260505230920 | 64 | 209 | 0.0 | 0.0 | 0.00 | 0.01 | 0.01 | 74 | 1007.2 |
| 20260505230417 | 64 | 210 | 0.0 | 1.0 | 0.00 | 0.01 | 0.01 | 73 | 1007.2 |
| 20260505225914 | 65 | 210 | 0.0 | 0.0 | 0.00 | 0.01 | 0.01 | 72 | 1007.5 |
| 20260505225411 | 65 | 210 | 0.0 | 1.0 | 0.00 | 0.01 | 0.01 | 70 | 1007.5 |
| 20260505224906 | 65 | 210 | 1.0 | 2.0 | 0.00 | 0.01 | 0.01 | 70 | 1007.5 |
| 20260505224404 | 65 | 314 | 0.0 | 0.0 | 0.00 | 0.01 | 0.01 | 70 | 1007.3 |
| 20260505223900 | 65 | 314 | 0.0 | 0.0 | 0.00 | 0.01 | 0.01 | 70 | 1007.2 |
| 20260505223357 | 65 | 314 | 0.0 | 1.0 | 0.00 | 0.01 | 0.01 | 65 | 1007.0 |
| 20260505222853 | 66 | 315 | 0.0 | 0.0 | 0.00 | 0.01 | 0.01 | 68 | 1007.1 |
| 20260505222350 | 65 | 315 | 1.0 | 1.0 | 0.00 | 0.01 | 0.01 | 62 | 1007.1 |
| 20260505221847 | 65 | 141 | 0.0 | 1.0 | 0.00 | 0.01 | 0.01 | 64 | 1007.1 |
| 20260505221343 | 64 | 190 | 0.0 | 1.0 | 0.00 | 0.01 | 0.01 | 67 | 1007.4 |
| 20260505220840 | 64 | 194 | 1.0 | 1.0 | 0.00 | 0.01 | 0.01 | 69 | 1007.6 |
| 20260505220337 | 64 | 90 | 0.0 | 0.0 | 0.00 | 0.01 | 0.01 | 69 | 1007.7 |
| 20260505215835 | 64 | 89 | 1.0 | 2.0 | 0.00 | 0.01 | 0.01 | 70 | 1007.8 |
| 20260505215333 | 64 | 197 | 0.0 | 1.0 | 0.00 | 0.01 | 0.01 | 74 | 1008.1 |
| 20260505214831 | 64 | 199 | 0.0 | 0.0 | 0.00 | 0.01 | 0.01 | 70 | 1007.8 |
| 20260505214328 | 64 | 235 | 1.0 | 2.0 | 0.07 | 0.01 | 0.01 | 70 | 1007.9 |
| 20260505213825 | 65 | 235 | 4.0 | 4.0 | 0.07 | 0.01 | 0.01 | 68 | 1007.7 |
| 20260505213323 | 69 | 294 | 2.0 | 3.0 | 0.07 | 0.01 | 0.01 | 65 | 1008.1 |
| 20260505212819 | 75 | 292 | 8.0 | 10.0 | 0.00 | 0.00 | 0.00 | 45 | 1007.5 |
| 20260505212316 | 76 | 169 | 1.0 | 1.0 | 0.00 | 0.00 | 0.00 | 31 | 1006.0 |
| 20260505211812 | 77 | 199 | 1.0 | 1.0 | 0.00 | 0.00 | 0.00 | 31 | 1005.6 |